| time (UTC) | temp F | wind direction | speed MPH | gust MPH | rain 1hr in | rain 24hr in | rain mn in | humidity % | barometer mb |
| 20260510165533 | 87 | 44 | 2.0 | 8.0 | 0.00 | 0.00 | 0.00 | 16 | 1006.7 |
| 20260510165028 | 87 | 173 | 2.0 | 9.0 | 0.00 | 0.00 | 0.00 | 16 | 1006.6 |
| 20260510164525 | 86 | 347 | 4.0 | 14.0 | 0.00 | 0.00 | 0.00 | 16 | 1006.7 |
| 20260510164035 | 86 | 42 | 2.0 | 14.0 | 0.00 | 0.00 | 0.00 | 16 | 1006.6 |
| 20260510163529 | 85 | 26 | 3.0 | 11.0 | 0.00 | 0.00 | 0.00 | 16 | 1006.5 |
| 20260510163024 | 85 | 41 | 3.0 | 15.0 | 0.00 | 0.00 | 0.00 | 17 | 1006.5 |
| 20260510162534 | 85 | 25 | 6.0 | 15.0 | 0.00 | 0.00 | 0.00 | 16 | 1006.5 |
| 20260510162031 | 85 | 58 | 3.0 | 10.0 | 0.00 | 0.00 | 0.00 | 17 | 1006.5 |
| 20260510161526 | 85 | 19 | 3.0 | 11.0 | 0.00 | 0.00 | 0.00 | 17 | 1006.5 |
| 20260510161022 | 84 | 59 | 2.0 | 8.0 | 0.00 | 0.00 | 0.00 | 17 | 1006.6 |
| 20260510160534 | 84 | 49 | 2.0 | 11.0 | 0.00 | 0.00 | 0.00 | 17 | 1006.5 |
| 20260510160028 | 84 | 349 | 6.0 | 11.0 | 0.00 | 0.00 | 0.00 | 17 | 1006.5 |
| 20260510155522 | 84 | 20 | 4.0 | 11.0 | 0.00 | 0.00 | 0.00 | 17 | 1006.6 |
| 20260510155037 | 84 | 59 | 3.0 | 13.0 | 0.00 | 0.00 | 0.00 | 17 | 1006.5 |
| 20260510154543 | 83 | 358 | 5.0 | 13.0 | 0.00 | 0.00 | 0.00 | 17 | 1006.5 |
| 20260510154026 | 83 | 58 | 3.0 | 9.0 | 0.00 | 0.00 | 0.00 | 17 | 1006.5 |
| 20260510153536 | 83 | 1 | 3.0 | 9.0 | 0.00 | 0.00 | 0.00 | 18 | 1006.5 |
| 20260510153032 | 83 | 24 | 4.0 | 8.0 | 0.00 | 0.00 | 0.00 | 18 | 1006.4 |
| 20260510152529 | 82 | 293 | 3.0 | 7.0 | 0.00 | 0.00 | 0.00 | 18 | 1006.3 |
| 20260510152040 | 82 | 16 | 3.0 | 11.0 | 0.00 | 0.00 | 0.00 | 18 | 1006.3 |
| 20260510151531 | 81 | 343 | 5.0 | 11.0 | 0.00 | 0.00 | 0.00 | 18 | 1006.2 |
| 20260510151025 | 81 | 23 | 4.0 | 9.0 | 0.00 | 0.00 | 0.00 | 18 | 1006.3 |
| 20260510150535 | 81 | 34 | 1.0 | 11.0 | 0.00 | 0.00 | 0.00 | 18 | 1006.3 |
| 20260510150030 | 80 | 62 | 4.0 | 11.0 | 0.00 | 0.00 | 0.00 | 18 | 1006.3 |
| 20260510145523 | 80 | 41 | 2.0 | 8.0 | 0.00 | 0.00 | 0.00 | 18 | 1006.4 |
| 20260510145034 | 80 | 6 | 2.0 | 10.0 | 0.00 | 0.00 | 0.00 | 18 | 1006.4 |
| 20260510144539 | 79 | 32 | 2.0 | 15.0 | 0.00 | 0.00 | 0.00 | 18 | 1006.4 |
| 20260510144026 | 79 | 6 | 3.0 | 12.0 | 0.00 | 0.00 | 0.00 | 18 | 1006.3 |
| 20260510143522 | 79 | 11 | 1.0 | 10.0 | 0.00 | 0.00 | 0.00 | 18 | 1006.3 |
| 20260510143039 | 78 | 32 | 2.0 | 9.0 | 0.00 | 0.00 | 0.00 | 18 | 1006.2 |
| 20260510142529 | 78 | 4 | 4.0 | 9.0 | 0.00 | 0.00 | 0.00 | 18 | 1006.1 |
| 20260510142038 | 77 | 39 | 0.0 | 5.0 | 0.00 | 0.00 | 0.00 | 20 | 1006.0 |
| 20260510141529 | 76 | 338 | 1.0 | 5.0 | 0.00 | 0.00 | 0.00 | 21 | 1006.0 |
| 20260510141035 | 75 | 98 | 0.0 | 4.0 | 0.00 | 0.00 | 0.00 | 24 | 1006.0 |
| 20260510140530 | 75 | 39 | 0.0 | 3.0 | 0.00 | 0.00 | 0.00 | 22 | 1006.0 |
| 20260510140026 | 75 | 339 | 0.0 | 5.0 | 0.00 | 0.00 | 0.00 | 22 | 1005.9 |
| 20260510135521 | 75 | 318 | 2.0 | 6.0 | 0.00 | 0.00 | 0.00 | 21 | 1005.9 |
| 20260510135031 | 75 | 276 | 1.0 | 6.0 | 0.00 | 0.00 | 0.00 | 21 | 1005.8 |
| 20260510134530 | 74 | 125 | 1.0 | 5.0 | 0.00 | 0.00 | 0.00 | 20 | 1005.8 |
| 20260510134023 | 74 | 61 | 1.0 | 6.0 | 0.00 | 0.00 | 0.00 | 20 | 1005.8 |
| 20260510133536 | 74 | 36 | 2.0 | 5.0 | 0.00 | 0.00 | 0.00 | 19 | 1006.0 |
| 20260510133029 | 74 | 7 | 1.0 | 9.0 | 0.00 | 0.00 | 0.00 | 19 | 1006.0 |
| 20260510132524 | 74 | 271 | 3.0 | 9.0 | 0.00 | 0.00 | 0.00 | 19 | 1006.1 |
| 20260510132036 | 74 | 11 | 4.0 | 9.0 | 0.00 | 0.00 | 0.00 | 19 | 1006.1 |
| 20260510131535 | 73 | 337 | 3.0 | 6.0 | 0.00 | 0.00 | 0.00 | 19 | 1006.0 |
| 20260510131024 | 73 | 23 | 1.0 | 5.0 | 0.00 | 0.00 | 0.00 | 20 | 1006.0 |
| 20260510130535 | 73 | 34 | 1.0 | 6.0 | 0.00 | 0.00 | 0.00 | 20 | 1006.0 |
| 20260510130030 | 73 | 3 | 1.0 | 9.0 | 0.00 | 0.00 | 0.00 | 20 | 1005.8 |
| 20260510125524 | 72 | 40 | 2.0 | 9.0 | 0.00 | 0.00 | 0.00 | 21 | 1005.8 |
| 20260510125021 | 72 | 16 | 0.0 | 3.0 | 0.00 | 0.00 | 0.00 | 21 | 1005.8 |
| 20260510124532 | 72 | 13 | 0.0 | 3.0 | 0.00 | 0.00 | 0.00 | 21 | 1005.8 |
| 20260510124027 | 72 | 51 | 0.0 | 4.0 | 0.00 | 0.00 | 0.00 | 20 | 1005.7 |
| 20260510123537 | 72 | 340 | 0.0 | 4.0 | 0.00 | 0.00 | 0.00 | 20 | 1005.5 |
| 20260510123034 | 72 | 359 | 0.0 | 7.0 | 0.00 | 0.00 | 0.00 | 21 | 1005.4 |
| 20260510122537 | 71 | 291 | 1.0 | 7.0 | 0.00 | 0.00 | 0.00 | 21 | 1005.4 |
| 20260510122027 | 70 | 27 | 2.0 | 6.0 | 0.00 | 0.00 | 0.00 | 22 | 1005.3 |
| 20260510121523 | 69 | 50 | 0.0 | 2.0 | 0.00 | 0.00 | 0.00 | 24 | 1005.2 |
| 20260510121033 | 68 | 43 | 0.0 | 3.0 | 0.00 | 0.00 | 0.00 | 24 | 1005.1 |
| 20260510120527 | 68 | 13 | 0.0 | 3.0 | 0.00 | 0.00 | 0.00 | 24 | 1005.2 |
| 20260510120027 | 69 | 113 | 0.0 | 2.0 | 0.00 | 0.00 | 0.00 | 24 | 1005.2 |
| 20260510115534 | 70 | 90 | 0.0 | 2.0 | 0.00 | 0.00 | 0.00 | 23 | 1005.2 |
| 20260510115031 | 72 | 42 | 0.0 | 3.0 | 0.00 | 0.00 | 0.00 | 21 | 1005.0 |
| 20260510114526 | 72 | 79 | 0.0 | 4.0 | 0.00 | 0.00 | 0.00 | 20 | 1004.8 |
| 20260510114035 | 72 | 61 | 1.0 | 5.0 | 0.00 | 0.00 | 0.00 | 21 | 1004.8 |
| 20260510113530 | 71 | 60 | 1.0 | 3.0 | 0.00 | 0.00 | 0.00 | 22 | 1004.9 |
| 20260510113023 | 71 | 86 | 0.0 | 3.0 | 0.00 | 0.00 | 0.00 | 22 | 1004.9 |
| 20260510112534 | 71 | 27 | 0.0 | 3.0 | 0.00 | 0.00 | 0.00 | 22 | 1004.7 |
| 20260510112022 | 71 | 33 | 0.0 | 7.0 | 0.00 | 0.00 | 0.00 | 22 | 1004.7 |
| 20260510111532 | 70 | 354 | 2.0 | 7.0 | 0.00 | 0.00 | 0.00 | 23 | 1004.6 |
| 20260510111028 | 69 | 32 | 2.0 | 5.0 | 0.00 | 0.00 | 0.00 | 25 | 1004.5 |
| 20260510110527 | 68 | 41 | 1.0 | 4.0 | 0.00 | 0.00 | 0.00 | 26 | 1004.5 |
| 20260510110039 | 66 | 37 | 1.0 | 2.0 | 0.00 | 0.00 | 0.00 | 28 | 1004.6 |
| 20260510105529 | 66 | 357 | 0.0 | 0.0 | 0.00 | 0.00 | 0.00 | 29 | 1004.7 |
| 20260510105025 | 66 | 356 | 0.0 | 0.0 | 0.00 | 0.00 | 0.00 | 29 | 1004.7 |
| 20260510104521 | 66 | 356 | 0.0 | 0.0 | 0.00 | 0.00 | 0.00 | 29 | 1004.7 |
| 20260510104033 | 66 | 356 | 0.0 | 0.0 | 0.00 | 0.00 | 0.00 | 28 | 1004.6 |
| 20260510103528 | 66 | 15 | 0.0 | 2.0 | 0.00 | 0.00 | 0.00 | 28 | 1004.6 |
| 20260510103021 | 66 | 16 | 0.0 | 2.0 | 0.00 | 0.00 | 0.00 | 28 | 1004.4 |
| 20260510102532 | 65 | 312 | 0.0 | 1.0 | 0.00 | 0.00 | 0.00 | 28 | 1004.5 |
| 20260510102027 | 65 | 310 | 0.0 | 1.0 | 0.00 | 0.00 | 0.00 | 29 | 1004.6 |
| 20260510101537 | 66 | 336 | 0.0 | 1.0 | 0.00 | 0.00 | 0.00 | 27 | 1004.5 |
| 20260510101030 | 66 | 335 | 0.0 | 1.0 | 0.00 | 0.00 | 0.00 | 27 | 1004.6 |
| 20260510100528 | 66 | 335 | 0.0 | 0.0 | 0.00 | 0.00 | 0.00 | 26 | 1004.5 |
| 20260510100020 | 67 | 335 | 0.0 | 0.0 | 0.00 | 0.00 | 0.00 | 26 | 1004.5 |
| 20260510095534 | 67 | 335 | 0.0 | 0.0 | 0.00 | 0.00 | 0.00 | 25 | 1004.4 |
| 20260510095026 | 68 | 335 | 0.0 | 1.0 | 0.00 | 0.00 | 0.00 | 24 | 1004.4 |
| 20260510094540 | 68 | 336 | 0.0 | 1.0 | 0.00 | 0.00 | 0.00 | 24 | 1004.4 |
| 20260510094032 | 68 | 335 | 0.0 | 0.0 | 0.00 | 0.00 | 0.00 | 24 | 1004.4 |
| 20260510093529 | 68 | 335 | 0.0 | 0.0 | 0.00 | 0.00 | 0.00 | 24 | 1004.3 |
| 20260510093020 | 68 | 335 | 0.0 | 3.0 | 0.00 | 0.00 | 0.00 | 24 | 1004.3 |
| 20260510092530 | 69 | 336 | 1.0 | 3.0 | 0.00 | 0.00 | 0.00 | 25 | 1004.2 |
| 20260510092027 | 69 | 297 | 0.0 | 2.0 | 0.00 | 0.00 | 0.00 | 23 | 1004.3 |
| 20260510091542 | 70 | 306 | 0.0 | 2.0 | 0.00 | 0.00 | 0.00 | 23 | 1004.2 |
| 20260510091032 | 71 | 95 | 0.0 | 1.0 | 0.00 | 0.00 | 0.00 | 22 | 1004.1 |
| 20260510090527 | 72 | 95 | 0.0 | 1.0 | 0.00 | 0.00 | 0.00 | 21 | 1004.1 |
| 20260510090038 | 72 | 94 | 0.0 | 1.0 | 0.00 | 0.00 | 0.00 | 20 | 1004.0 |
| 20260510085530 | 73 | 96 | 0.0 | 3.0 | 0.00 | 0.00 | 0.00 | 20 | 1004.0 |
| 20260510085027 | 73 | 92 | 0.0 | 6.0 | 0.00 | 0.00 | 0.00 | 20 | 1004.0 |
| 20260510084537 | 71 | 58 | 2.0 | 7.0 | 0.00 | 0.00 | 0.00 | 20 | 1004.1 |
| 20260510084030 | 71 | 283 | 0.0 | 7.0 | 0.00 | 0.00 | 0.00 | 21 | 1004.1 |
| 20260510083526 | 70 | 148 | 2.0 | 7.0 | 0.00 | 0.00 | 0.00 | 22 | 1004.0 |
| 20260510083034 | 68 | 40 | 0.0 | 4.0 | 0.00 | 0.00 | 0.00 | 23 | 1004.1 |
| 20260510082529 | 67 | 103 | 0.0 | 0.0 | 0.00 | 0.00 | 0.00 | 24 | 1004.0 |
| 20260510082023 | 67 | 103 | 0.0 | 0.0 | 0.00 | 0.00 | 0.00 | 23 | 1004.0 |
| 20260510081534 | 68 | 103 | 0.0 | 2.0 | 0.00 | 0.00 | 0.00 | 23 | 1004.0 |
| 20260510081031 | 68 | 103 | 0.0 | 2.0 | 0.00 | 0.00 | 0.00 | 23 | 1004.0 |
| 20260510080526 | 68 | 15 | 0.0 | 1.0 | 0.00 | 0.00 | 0.00 | 23 | 1003.9 |
| 20260510080036 | 68 | 77 | 0.0 | 1.0 | 0.00 | 0.00 | 0.00 | 22 | 1003.9 |
| 20260510075531 | 69 | 118 | 0.0 | 1.0 | 0.00 | 0.00 | 0.00 | 21 | 1003.9 |
| 20260510075027 | 69 | 112 | 0.0 | 1.0 | 0.00 | 0.00 | 0.00 | 21 | 1003.7 |
| 20260510074537 | 70 | 143 | 0.0 | 1.0 | 0.00 | 0.00 | 0.00 | 21 | 1003.8 |
| 20260510074032 | 70 | 143 | 0.0 | 1.0 | 0.00 | 0.00 | 0.00 | 20 | 1003.9 |
| 20260510073528 | 71 | 151 | 0.0 | 1.0 | 0.00 | 0.00 | 0.00 | 21 | 1003.9 |
| 20260510073028 | 71 | 153 | 0.0 | 1.0 | 0.00 | 0.00 | 0.00 | 19 | 1003.9 |
| 20260510072533 | 72 | 153 | 0.0 | 1.0 | 0.00 | 0.00 | 0.00 | 19 | 1003.9 |
| 20260510072029 | 73 | 124 | 0.0 | 1.0 | 0.00 | 0.00 | 0.00 | 19 | 1003.9 |
| 20260510071524 | 74 | 124 | 0.0 | 2.0 | 0.00 | 0.00 | 0.00 | 18 | 1003.9 |
| 20260510071035 | 75 | 124 | 1.0 | 2.0 | 0.00 | 0.00 | 0.00 | 16 | 1003.9 |
| 20260510070532 | 76 | 105 | 0.0 | 1.0 | 0.00 | 0.00 | 0.00 | 15 | 1004.0 |
| 20260510070030 | 76 | 105 | 0.0 | 1.0 | 0.00 | 0.00 | 0.00 | 15 | 1003.8 |
| 20260510065537 | 76 | 46 | 0.0 | 2.0 | 0.00 | 0.00 | 0.00 | 14 | 1003.7 |
| 20260510065027 | 76 | 76 | 0.0 | 2.0 | 0.00 | 0.00 | 0.00 | 14 | 1003.7 |
| 20260510064534 | 76 | 200 | 0.0 | 2.0 | 0.00 | 0.00 | 0.00 | 14 | 1003.7 |
| 20260510064029 | 77 | 60 | 0.0 | 2.0 | 0.00 | 0.00 | 0.00 | 14 | 1003.7 |
| 20260510063526 | 77 | 84 | 0.0 | 4.0 | 0.00 | 0.00 | 0.00 | 14 | 1003.7 |
| 20260510063023 | 77 | 33 | 0.0 | 4.0 | 0.00 | 0.00 | 0.00 | 14 | 1003.8 |
| 20260510062532 | 77 | 29 | 0.0 | 3.0 | 0.00 | 0.00 | 0.00 | 14 | 1003.8 |
| 20260510062027 | 77 | 108 | 0.0 | 4.0 | 0.00 | 0.00 | 0.00 | 14 | 1003.8 |
| 20260510061539 | 77 | 249 | 0.0 | 4.0 | 0.00 | 0.00 | 0.00 | 14 | 1003.8 |
| 20260510061033 | 76 | 248 | 0.0 | 3.0 | 0.00 | 0.00 | 0.00 | 14 | 1003.9 |
| 20260510060528 | 76 | 112 | 0.0 | 3.0 | 0.00 | 0.00 | 0.00 | 14 | 1003.8 |
| 20260510060025 | 76 | 293 | 0.0 | 4.0 | 0.00 | 0.00 | 0.00 | 14 | 1003.9 |
| 20260510055535 | 76 | 128 | 0.0 | 4.0 | 0.00 | 0.00 | 0.00 | 14 | 1003.9 |
| 20260510055029 | 76 | 321 | 0.0 | 3.0 | 0.00 | 0.00 | 0.00 | 14 | 1003.9 |
| 20260510054523 | 76 | 156 | 0.0 | 2.0 | 0.00 | 0.00 | 0.00 | 14 | 1003.8 |
| 20260510054134 | 76 | 232 | 0.0 | 2.0 | 0.00 | 0.00 | 0.00 | 14 | 1003.8 |
| 20260510053530 | 76 | 184 | 0.0 | 2.0 | 0.00 | 0.00 | 0.00 | 14 | 1003.9 |
| 20260510053045 | 76 | 166 | 0.0 | 1.0 | 0.00 | 0.00 | 0.00 | 14 | 1003.8 |
| 20260510052533 | 77 | 245 | 0.0 | 2.0 | 0.00 | 0.00 | 0.00 | 13 | 1003.8 |
| 20260510052030 | 78 | 178 | 0.0 | 3.0 | 0.00 | 0.00 | 0.00 | 13 | 1003.9 |
| 20260510051526 | 78 | 143 | 0.0 | 4.0 | 0.00 | 0.00 | 0.00 | 12 | 1003.9 |
| 20260510051034 | 78 | 270 | 0.0 | 4.0 | 0.00 | 0.00 | 0.00 | 13 | 1003.9 |
| 20260510050529 | 78 | 213 | 0.0 | 3.0 | 0.00 | 0.00 | 0.00 | 13 | 1003.9 |
| 20260510050026 | 79 | 244 | 0.0 | 3.0 | 0.00 | 0.00 | 0.00 | 13 | 1003.9 |
| 20260510045522 | 79 | 205 | 0.0 | 4.0 | 0.00 | 0.00 | 0.00 | 13 | 1003.8 |
| 20260510045032 | 79 | 231 | 0.0 | 4.0 | 0.00 | 0.00 | 0.00 | 12 | 1003.9 |
| 20260510044527 | 79 | 278 | 0.0 | 4.0 | 0.00 | 0.00 | 0.00 | 12 | 1003.9 |
| 20260510044023 | 79 | 270 | 0.0 | 4.0 | 0.00 | 0.00 | 0.00 | 12 | 1003.8 |
| 20260510043533 | 79 | 200 | 0.0 | 4.0 | 0.00 | 0.00 | 0.00 | 12 | 1003.9 |
| 20260510043039 | 79 | 61 | 1.0 | 4.0 | 0.00 | 0.00 | 0.00 | 12 | 1003.9 |
| 20260510042521 | 80 | 248 | 0.0 | 2.0 | 0.00 | 0.00 | 0.00 | 12 | 1003.9 |
| 20260510042033 | 80 | 253 | 0.0 | 3.0 | 0.00 | 0.00 | 0.00 | 12 | 1003.9 |
| 20260510041530 | 81 | 61 | 0.0 | 3.0 | 0.00 | 0.00 | 0.00 | 12 | 1004.0 |
| 20260510041024 | 82 | 302 | 0.0 | 4.0 | 0.00 | 0.00 | 0.00 | 11 | 1003.9 |
| 20260510040536 | 82 | 315 | 0.0 | 5.0 | 0.00 | 0.00 | 0.00 | 10 | 1003.8 |
| 20260510040039 | 83 | 280 | 1.0 | 6.0 | 0.00 | 0.00 | 0.00 | 11 | 1003.7 |
| 20260510035525 | 83 | 128 | 0.0 | 6.0 | 0.00 | 0.00 | 0.00 | 10 | 1003.6 |
| 20260510035036 | 83 | 77 | 2.0 | 6.0 | 0.00 | 0.00 | 0.00 | 10 | 1003.6 |
| 20260510034531 | 83 | 256 | 1.0 | 4.0 | 0.00 | 0.00 | 0.00 | 10 | 1003.6 |
| 20260510034025 | 83 | 266 | 1.0 | 5.0 | 0.00 | 0.00 | 0.00 | 10 | 1003.5 |
| 20260510033534 | 83 | 124 | 1.0 | 6.0 | 0.00 | 0.00 | 0.00 | 10 | 1003.5 |
| 20260510033029 | 83 | 349 | 2.0 | 6.0 | 0.00 | 0.00 | 0.00 | 10 | 1003.4 |
| 20260510032525 | 83 | 222 | 0.0 | 4.0 | 0.00 | 0.00 | 0.00 | 10 | 1003.3 |
| 20260510032021 | 84 | 257 | 0.0 | 4.0 | 0.00 | 0.00 | 0.00 | 10 | 1003.3 |
| 20260510031532 | 84 | 102 | 1.0 | 6.0 | 0.00 | 0.00 | 0.00 | 10 | 1003.3 |
| 20260510031025 | 84 | 249 | 1.0 | 6.0 | 0.00 | 0.00 | 0.00 | 10 | 1003.2 |
| 20260510030535 | 84 | 340 | 1.0 | 6.0 | 0.00 | 0.00 | 0.00 | 10 | 1003.1 |
| 20260510030028 | 84 | 191 | 1.0 | 5.0 | 0.00 | 0.00 | 0.00 | 10 | 1003.0 |
| 20260510025525 | 84 | 137 | 1.0 | 6.0 | 0.00 | 0.00 | 0.00 | 10 | 1003.0 |
| 20260510025035 | 85 | 293 | 0.0 | 7.0 | 0.00 | 0.00 | 0.00 | 10 | 1003.0 |
| 20260510024531 | 85 | 270 | 2.0 | 7.0 | 0.00 | 0.00 | 0.00 | 10 | 1002.8 |
| 20260510024025 | 85 | 239 | 1.0 | 6.0 | 0.00 | 0.00 | 0.00 | 10 | 1002.8 |
| 20260510023536 | 85 | 269 | 1.0 | 6.0 | 0.00 | 0.00 | 0.00 | 10 | 1002.7 |
| 20260510023030 | 84 | 124 | 1.0 | 5.0 | 0.00 | 0.00 | 0.00 | 10 | 1002.6 |
| 20260510022526 | 84 | 255 | 1.0 | 4.0 | 0.00 | 0.00 | 0.00 | 11 | 1002.5 |
| 20260510022022 | 83 | 198 | 0.0 | 4.0 | 0.00 | 0.00 | 0.00 | 11 | 1002.4 |
| 20260510021541 | 83 | 231 | 0.0 | 3.0 | 0.00 | 0.00 | 0.00 | 11 | 1002.3 |
| 20260510021026 | 83 | 111 | 0.0 | 3.0 | 0.00 | 0.00 | 0.00 | 11 | 1002.3 |
| 20260510020521 | 84 | 143 | 0.0 | 1.0 | 0.00 | 0.00 | 0.00 | 11 | 1002.3 |
| 20260510020033 | 84 | 201 | 0.0 | 1.0 | 0.00 | 0.00 | 0.00 | 11 | 1002.2 |
| 20260510015530 | 85 | 329 | 0.0 | 2.0 | 0.00 | 0.00 | 0.00 | 11 | 1002.2 |
| 20260510015023 | 86 | 221 | 0.0 | 3.0 | 0.00 | 0.00 | 0.00 | 10 | 1002.1 |
| 20260510014536 | 86 | 250 | 0.0 | 3.0 | 0.00 | 0.00 | 0.00 | 10 | 1002.1 |
| 20260510014031 | 86 | 129 | 0.0 | 3.0 | 0.00 | 0.00 | 0.00 | 10 | 1001.9 |
| 20260510013527 | 86 | 262 | 0.0 | 3.0 | 0.00 | 0.00 | 0.00 | 10 | 1001.9 |
| 20260510013025 | 87 | 166 | 0.0 | 3.0 | 0.00 | 0.00 | 0.00 | 11 | 1001.8 |
| 20260510012532 | 87 | 265 | 0.0 | 2.0 | 0.00 | 0.00 | 0.00 | 10 | 1001.8 |
| 20260510012026 | 87 | 134 | 0.0 | 4.0 | 0.00 | 0.00 | 0.00 | 10 | 1001.7 |
| 20260510011542 | 87 | 220 | 1.0 | 4.0 | 0.00 | 0.00 | 0.00 | 10 | 1001.7 |
| 20260510011032 | 88 | 225 | 0.0 | 5.0 | 0.00 | 0.00 | 0.00 | 11 | 1001.7 |
| 20260510010526 | 88 | 280 | 0.0 | 4.0 | 0.00 | 0.00 | 0.00 | 11 | 1001.6 |
| 20260510010036 | 89 | 242 | 0.0 | 4.0 | 0.00 | 0.00 | 0.00 | 10 | 1001.7 |
| 20260510005530 | 89 | 231 | 0.0 | 4.0 | 0.00 | 0.00 | 0.00 | 10 | 1001.6 |
| 20260510005025 | 89 | 243 | 1.0 | 4.0 | 0.00 | 0.00 | 0.00 | 10 | 1001.7 |
| 20260510004527 | 90 | 263 | 0.0 | 4.0 | 0.00 | 0.00 | 0.00 | 10 | 1001.6 |
| 20260510004032 | 90 | 179 | 0.0 | 4.0 | 0.00 | 0.00 | 0.00 | 10 | 1001.7 |
| 20260510003528 | 91 | 136 | 0.0 | 4.0 | 0.00 | 0.00 | 0.00 | 10 | 1001.6 |
| 20260510003024 | 92 | 211 | 0.0 | 2.0 | 0.00 | 0.00 | 0.00 | 10 | 1001.7 |
| 20260510002536 | 93 | 225 | 0.0 | 2.0 | 0.00 | 0.00 | 0.00 | 9 | 1001.7 |
| 20260510002024 | 93 | 236 | 0.0 | 5.0 | 0.00 | 0.00 | 0.00 | 9 | 1001.7 |
| 20260510001538 | 93 | 147 | 0.0 | 5.0 | 0.00 | 0.00 | 0.00 | 8 | 1001.7 |
| 20260510001030 | 94 | 174 | 2.0 | 4.0 | 0.00 | 0.00 | 0.00 | 8 | 1001.7 |
| 20260510000526 | 94 | 193 | 0.0 | 4.0 | 0.00 | 0.00 | 0.00 | 9 | 1001.7 |
| 20260510000046 | 94 | 211 | 0.0 | 5.0 | 0.00 | 0.00 | 0.00 | 9 | 1001.7 |
| 20260509235533 | 94 | 85 | 0.0 | 5.0 | 0.00 | 0.00 | 0.00 | 8 | 1001.8 |
| 20260509235026 | 95 | 275 | 1.0 | 4.0 | 0.00 | 0.00 | 0.00 | 9 | 1001.8 |
| 20260509234537 | 95 | 248 | 0.0 | 4.0 | 0.00 | 0.00 | 0.00 | 9 | 1001.8 |
| 20260509234032 | 95 | 149 | 0.0 | 4.0 | 0.00 | 0.00 | 0.00 | 9 | 1001.9 |
| 20260509233527 | 95 | 246 | 1.0 | 4.0 | 0.00 | 0.00 | 0.00 | 8 | 1001.8 |
| 20260509233022 | 95 | 148 | 0.0 | 6.0 | 0.00 | 0.00 | 0.00 | 8 | 1001.9 |
| 20260509232533 | 95 | 118 | 2.0 | 6.0 | 0.00 | 0.00 | 0.00 | 8 | 1001.9 |
| 20260509232027 | 96 | 203 | 2.0 | 6.0 | 0.00 | 0.00 | 0.00 | 8 | 1002.0 |
| 20260509231522 | 96 | 87 | 1.0 | 6.0 | 0.00 | 0.00 | 0.00 | 8 | 1002.0 |
| 20260509231032 | 96 | 231 | 1.0 | 7.0 | 0.00 | 0.00 | 0.00 | 9 | 1002.1 |
| 20260509230529 | 95 | 153 | 2.0 | 7.0 | 0.00 | 0.00 | 0.00 | 9 | 1002.1 |
| 20260509230024 | 96 | 224 | 3.0 | 6.0 | 0.00 | 0.00 | 0.00 | 8 | 1002.1 |
| 20260509225534 | 96 | 228 | 0.0 | 6.0 | 0.00 | 0.00 | 0.00 | 8 | 1002.4 |
| 20260509225028 | 96 | 186 | 1.0 | 5.0 | 0.00 | 0.00 | 0.00 | 9 | 1002.3 |
| 20260509224524 | 96 | 293 | 1.0 | 8.0 | 0.00 | 0.00 | 0.00 | 8 | 1002.4 |
| 20260509224034 | 96 | 214 | 1.0 | 8.0 | 0.00 | 0.00 | 0.00 | 8 | 1002.5 |
| 20260509223530 | 96 | 136 | 0.0 | 4.0 | 0.00 | 0.00 | 0.00 | 9 | 1002.5 |
| 20260509223037 | 95 | 134 | 0.0 | 5.0 | 0.00 | 0.00 | 0.00 | 7 | 1002.5 |
| 20260509222534 | 95 | 132 | 1.0 | 6.0 | 0.00 | 0.00 | 0.00 | 7 | 1002.6 |
| 20260509222027 | 95 | 179 | 1.0 | 6.0 | 0.00 | 0.00 | 0.00 | 8 | 1002.7 |
| 20260509221523 | 95 | 108 | 3.0 | 6.0 | 0.00 | 0.00 | 0.00 | 8 | 1002.8 |
| 20260509221032 | 96 | 210 | 0.0 | 6.0 | 0.00 | 0.00 | 0.00 | 7 | 1002.9 |
| 20260509220531 | 96 | 281 | 1.0 | 5.0 | 0.00 | 0.00 | 0.00 | 8 | 1003.0 |
| 20260509220024 | 96 | 285 | 2.0 | 5.0 | 0.00 | 0.00 | 0.00 | 9 | 1003.0 |
| 20260509215533 | 96 | 288 | 1.0 | 6.0 | 0.00 | 0.00 | 0.00 | 8 | 1003.1 |
| 20260509215029 | 95 | 108 | 0.0 | 6.0 | 0.00 | 0.00 | 0.00 | 9 | 1003.2 |
| 20260509214542 | 94 | 108 | 0.0 | 3.0 | 0.00 | 0.00 | 0.00 | 9 | 1003.3 |
| 20260509214030 | 94 | 98 | 1.0 | 5.0 | 0.00 | 0.00 | 0.00 | 8 | 1003.3 |
| 20260509213539 | 95 | 104 | 2.0 | 5.0 | 0.00 | 0.00 | 0.00 | 8 | 1003.5 |
| 20260509213032 | 95 | 342 | 0.0 | 9.0 | 0.00 | 0.00 | 0.00 | 9 | 1003.6 |
| 20260509212526 | 94 | 131 | 5.0 | 9.0 | 0.00 | 0.00 | 0.00 | 9 | 1003.6 |
| 20260509212038 | 94 | 106 | 1.0 | 7.0 | 0.00 | 0.00 | 0.00 | 9 | 1003.7 |
| 20260509211532 | 95 | 113 | 2.0 | 6.0 | 0.00 | 0.00 | 0.00 | 9 | 1003.9 |
| 20260509211027 | 95 | 113 | 2.0 | 7.0 | 0.00 | 0.00 | 0.00 | 9 | 1004.0 |
| 20260509210523 | 95 | 159 | 3.0 | 7.0 | 0.00 | 0.00 | 0.00 | 9 | 1004.1 |
| 20260509210034 | 96 | 118 | 0.0 | 6.0 | 0.00 | 0.00 | 0.00 | 10 | 1004.2 |
| 20260509205527 | 95 | 105 | 1.0 | 6.0 | 0.00 | 0.00 | 0.00 | 9 | 1004.3 |
| 20260509205022 | 96 | 113 | 2.0 | 6.0 | 0.00 | 0.00 | 0.00 | 9 | 1004.3 |
| 20260509204536 | 95 | 116 | 2.0 | 7.0 | 0.00 | 0.00 | 0.00 | 10 | 1004.5 |
| 20260509204026 | 95 | 103 | 1.0 | 6.0 | 0.00 | 0.00 | 0.00 | 9 | 1004.5 |
| 20260509203536 | 94 | 113 | 1.0 | 5.0 | 0.00 | 0.00 | 0.00 | 9 | 1004.7 |
| 20260509203027 | 96 | 113 | 0.0 | 6.0 | 0.00 | 0.00 | 0.00 | 9 | 1004.8 |
| 20260509202521 | 95 | 205 | 1.0 | 9.0 | 0.00 | 0.00 | 0.00 | 9 | 1005.0 |
| 20260509202032 | 94 | 215 | 1.0 | 9.0 | 0.00 | 0.00 | 0.00 | 11 | 1005.1 |
| 20260509201528 | 94 | 176 | 2.0 | 8.0 | 0.00 | 0.00 | 0.00 | 10 | 1005.0 |
| 20260509201023 | 94 | 143 | 2.0 | 7.0 | 0.00 | 0.00 | 0.00 | 11 | 1005.2 |
| 20260509200533 | 93 | 203 | 0.0 | 7.0 | 0.00 | 0.00 | 0.00 | 12 | 1005.4 |
| 20260509200031 | 94 | 120 | 3.0 | 7.0 | 0.00 | 0.00 | 0.00 | 10 | 1005.5 |
| 20260509195526 | 94 | 159 | 1.0 | 5.0 | 0.00 | 0.00 | 0.00 | 10 | 1005.5 |
| 20260509195020 | 94 | 113 | 2.0 | 6.0 | 0.00 | 0.00 | 0.00 | 10 | 1005.6 |
| 20260509194533 | 94 | 127 | 1.0 | 6.0 | 0.00 | 0.00 | 0.00 | 12 | 1005.7 |
| 20260509194028 | 94 | 141 | 0.0 | 4.0 | 0.00 | 0.00 | 0.00 | 12 | 1005.8 |
| 20260509193533 | 94 | 135 | 1.0 | 4.0 | 0.00 | 0.00 | 0.00 | 12 | 1005.9 |
| 20260509193031 | 93 | 290 | 0.0 | 4.0 | 0.00 | 0.00 | 0.00 | 13 | 1006.0 |
| 20260509192521 | 93 | 165 | 1.0 | 4.0 | 0.00 | 0.00 | 0.00 | 12 | 1006.0 |
| 20260509192033 | 93 | 145 | 1.0 | 4.0 | 0.00 | 0.00 | 0.00 | 12 | 1006.1 |
| 20260509191539 | 93 | 242 | 1.0 | 4.0 | 0.00 | 0.00 | 0.00 | 13 | 1006.2 |
| 20260509191023 | 92 | 228 | 0.0 | 5.0 | 0.00 | 0.00 | 0.00 | 12 | 1006.3 |
| 20260509190536 | 92 | 127 | 2.0 | 5.0 | 0.00 | 0.00 | 0.00 | 12 | 1006.3 |
| 20260509190032 | 92 | 356 | 1.0 | 3.0 | 0.00 | 0.00 | 0.00 | 11 | 1006.3 |
| 20260509185525 | 92 | 125 | 1.0 | 3.0 | 0.00 | 0.00 | 0.00 | 12 | 1006.5 |
| 20260509185123 | 92 | 248 | 0.0 | 3.0 | 0.00 | 0.00 | 0.00 | 12 | 1006.5 |
| 20260509184543 | 92 | 200 | 0.0 | 4.0 | 0.00 | 0.00 | 0.00 | 12 | 1006.6 |
| 20260509184023 | 90 | 218 | 0.0 | 3.0 | 0.00 | 0.00 | 0.00 | 12 | 1006.7 |
| 20260509183533 | 89 | 323 | 0.0 | 2.0 | 0.00 | 0.00 | 0.00 | 13 | 1006.8 |
| 20260509183043 | 90 | 108 | 0.0 | 2.0 | 0.00 | 0.00 | 0.00 | 12 | 1006.9 |
| 20260509182523 | 89 | 135 | 1.0 | 4.0 | 0.00 | 0.00 | 0.00 | 14 | 1006.9 |
| 20260509182032 | 90 | 131 | 1.0 | 4.0 | 0.00 | 0.00 | 0.00 | 14 | 1007.1 |
| 20260509181529 | 91 | 109 | 1.0 | 3.0 | 0.00 | 0.00 | 0.00 | 13 | 1007.2 |
| 20260509181025 | 90 | 228 | 0.0 | 2.0 | 0.00 | 0.00 | 0.00 | 14 | 1007.2 |
| 20260509180533 | 89 | 160 | 0.0 | 2.0 | 0.00 | 0.00 | 0.00 | 13 | 1007.2 |
| 20260509180032 | 89 | 266 | 0.0 | 1.0 | 0.00 | 0.00 | 0.00 | 14 | 1007.5 |
| 20260509175527 | 88 | 45 | 0.0 | 3.0 | 0.00 | 0.00 | 0.00 | 14 | 1007.5 |
| 20260509175034 | 87 | 158 | 0.0 | 3.0 | 0.00 | 0.00 | 0.00 | 16 | 1007.6 |
| 20260509174528 | 86 | 22 | 0.0 | 2.0 | 0.00 | 0.00 | 0.00 | 15 | 1007.6 |
| 20260509174026 | 85 | 238 | 0.0 | 2.0 | 0.00 | 0.00 | 0.00 | 16 | 1007.7 |
| 20260509173536 | 85 | 128 | 0.0 | 3.0 | 0.00 | 0.00 | 0.00 | 16 | 1007.6 |
| 20260509173030 | 85 | 120 | 2.0 | 3.0 | 0.00 | 0.00 | 0.00 | 17 | 1007.8 |
| 20260509172527 | 85 | 116 | 0.0 | 2.0 | 0.00 | 0.00 | 0.00 | 17 | 1007.7 |
| 20260509172021 | 84 | 79 | 0.0 | 3.0 | 0.00 | 0.00 | 0.00 | 17 | 1007.8 |
| 20260509171533 | 84 | 90 | 1.0 | 3.0 | 0.00 | 0.00 | 0.00 | 17 | 1007.8 |
| 20260509171027 | 83 | 29 | 0.0 | 3.0 | 0.00 | 0.00 | 0.00 | 17 | 1007.9 |
| 20260509170527 | 82 | 152 | 0.0 | 4.0 | 0.00 | 0.00 | 0.00 | 18 | 1008.0 |
| 20260509170035 | 81 | 158 | 1.0 | 4.0 | 0.00 | 0.00 | 0.00 | 19 | 1008.0 |